Location: Larkspur
(54.4391°N, 113.7691°W)
Time: 17:05:15
(UTC+00:00)

MOZHAYETS 4 - Pass Details

Date: 06 December 2023
Orbit: 654 x 672 km, 98.3° (Epoch: 23 February)

Event Time Altitude Azimuth Distance (km) Brightness Sun altitude
Rises 00:34:09 0° 11° (N) 3,037 10.8 -11.0°
Reaches altitude 10° 00:36:28 10° 5° (N) 2,120 10.0 -11.3°
Maximum altitude 00:40:49 42° 295° (WNW) 974 8.9 -11.9°
Drops below altitude 10° 00:45:08 10° 226° (SW) 2,108 11.4 -12.4°
Sets 00:47:27 0° 219° (SW) 3,018 12.2 -12.8°
